Weather in Kem

Russia / Republic of Karelia     64°57′19″N   34°35′54″E
temp.,
°C
wind,
m/s
gust,
m/s
humid.,
%
clouds,
%
prec.,
mm/h
press.,
hPa
HPBL,
m
28 july, wed
wed2800:00+11ssw336598 0.0 101735
03:00+11sw3470100 0.0 101547
06:00+15wsw387232 0.0 1013177
09:00+22w454640 0.0 1011664
12:00+25wnw473647 0.0 10091849
15:00+22ne77511 0.0 1008479
18:00+17ene59695 0.0 1009392
21:00+13e37851 0.0 1008184
29 july, thu
thu2900:00+11ene369471 0.0 1008118
03:00+11ese489277 0.1 1006240
06:00+12ese588050 0.0 1005307
09:00+14ese6867100 0.2 1004509
12:00+16ese5759100 0.1 1003783
15:00+15e576185 0.2 1002690
18:00+11e71273100 0.1 1001357
21:00+10e6128797 0.1 1001373
30 july, fri
fri3000:00+10ene5992100 0.0 1000380
03:00+10ene4893100 0.0 999283
06:00+11e4788100 0.0 999316
09:00+12e4681100 0.0 998364
12:00+13e4583100 0.6 997374
15:00+13e5891100 3.1 997317
18:00+14ese5889100 1.3 995321
21:00+12ene369895 4.8 994140
31 july, sat
sat3100:00+12s1198100 0.8 99441
03:00+13wsw3495100 1.2 99394
06:00+13se1195100 0.3 99314
09:00+14s1294100 1.5 993167
12:00+17w0276100 1.4 994573
15:00+17ene1178100 4.9 994404
18:00+15ne3391100 2.1 995226
21:00+12ne249842 3.6 996139
1 august, sun
sun100:00+11ne249960 0.1 99797
03:00+10e229828 0.1 99849
06:00+12ese239543 0.0 998118
09:00+15ese338576 0.0 999450
12:00+16e227697 0.0 999604
15:00+17ene3271100 0.0 999608
18:00+15ene4577100 0.0 999327
21:00+12ne369732 0.0 999167